Location: Asheville, NC
(35.6000°N, 82.5500°W)
Time: 21:55:29
(UTC-04:00)

EO-88 - Visible Passes

Search period start: 25 April 2018 00:00
Search period end: 05 May 2018 00:00
Orbit: 489 x 497 km, 97.5° (Epoch: 25 April)

Date Brightness Start Highest point End Pass type
(mag) Time Alt. Az. Time Alt. Az. Time Alt. Az.
25 Apr ? 22:45:46 21° N 22:45:46 21° N 22:47:07 10° N visible
26 Apr ? 22:23:40 18° NNE 22:23:40 18° NNE 22:24:57 10° NNE visible
27 Apr ? 22:01:34 12° NE 22:01:34 12° NE 22:02:16 10° NE visible
27 Apr ? 23:36:05 14° NW 23:36:05 14° NW 23:36:42 10° NW visible
28 Apr ? 23:13:59 20° NNW 23:13:59 20° NNW 23:15:16 10° NNW visible
29 Apr ? 22:51:52 25° N 22:51:52 25° N 22:53:30 10° N visible
30 Apr ? 22:29:46 22° NNE 22:29:46 22° NNE 22:31:25 10° N visible
01 May ? 22:07:39 15° NE 22:07:39 15° NE 22:08:55 10° NNE visible
01 May ? 23:42:11 13° NW 23:42:11 13° NW 23:42:49 10° NW visible
02 May ? 23:20:03 21° NW 23:20:03 21° NW 23:21:30 10° NNW visible
03 May ? 22:57:56 28° N 22:57:56 28° N 22:59:48 10° N visible
04 May ? 22:35:49 27° NNE 22:35:49 27° NNE 22:37:48 10° N visible
